When you browse on this site, cookies collect data to enhance your experience and personalize the content and advertising you see.
Visit our Privacy Policy to learn more. By continuing to use the site, you agree to this use of cookies and data.
  • Em Portugal
  • Lista de países
  • Para 7 dias
  • Temperatura da água
  • Mapa do tempo
  • Widgets de tempo
  • user-avatar
    Iniciar Sessão

    Previsão horária em Vishnevka

    Hoje, 26 Agosto, Segunda-feira

    Tempo Temperatura Precipitação Vento Pressão Humidade
    00:00 +12°C° 0 mm 4 m/s 757 mmHg 87%
    01:00 +11°C° 0 mm 4 m/s 757 mmHg 89%
    02:00 +11°C° 0 mm 4 m/s 758 mmHg 91%
    03:00 +10°C° 0 mm 4 m/s 759 mmHg 94%
    04:00 +10°C° 0 mm 4 m/s 759 mmHg 93%
    05:00 +11°C° 0 mm 4 m/s 759 mmHg 92%
    06:00 +11°C° 0 mm 4 m/s 759 mmHg 91%
    07:00 +12°C° 0 mm 4 m/s 760 mmHg 85%
    08:00 +12°C° 0 mm 4 m/s 760 mmHg 79%
    09:00 +13°C° 0 mm 5 m/s 760 mmHg 73%
    10:00 +15°C° 0 mm 4 m/s 760 mmHg 67%
    11:00 +17°C° 0 mm 4 m/s 760 mmHg 62%
    12:00 +18°C° 0 mm 4 m/s 760 mmHg 56%
    13:00 +18°C° 0 mm 4 m/s 760 mmHg 57%
    14:00 +18°C° 0 mm 4 m/s 760 mmHg 58%
    15:00 +18°C° 0 mm 4 m/s 760 mmHg 59%
    16:00 +17°C° 0 mm 4 m/s 760 mmHg 64%
    17:00 +16°C° 0 mm 3 m/s 760 mmHg 69%
    18:00 +15°C° 0 mm 2 m/s 759 mmHg 74%
    19:00 +14°C° 0 mm 2 m/s 759 mmHg 77%
    20:00 +13°C° 0 mm 2 m/s 759 mmHg 80%
    21:00 +12°C° 0 mm 1 m/s 759 mmHg 83%
    22:00 +12°C° 0 mm 2 m/s 759 mmHg 83%
    23:00 +12°C° 0 mm 2 m/s 758 mmHg 83%

    Amanhã, 27 Agosto, Terça-feira

    Tempo Temperatura Precipitação Vento Pressão Humidade
    00:00 +12°C° 0 mm 2 m/s 758 mmHg 83%
    01:00 +12°C° 0 mm 2 m/s 757 mmHg 81%
    02:00 +12°C° 0 mm 2 m/s 757 mmHg 80%
    03:00 +12°C° 0 mm 2 m/s 756 mmHg 79%
    04:00 +12°C° 0 mm 3 m/s 756 mmHg 78%
    05:00 +12°C° 0 mm 4 m/s 755 mmHg 78%
    06:00 +12°C° 0 mm 4 m/s 754 mmHg 77%
    07:00 +13°C° 0.1 mm 5 m/s 754 mmHg 77%
    08:00 +14°C° 0.1 mm 5 m/s 753 mmHg 78%
    09:00 +14°C° 0.1 mm 6 m/s 753 mmHg 78%
    10:00 +14°C° 0.3 mm 6 m/s 752 mmHg 80%
    11:00 +14°C° 0.3 mm 6 m/s 751 mmHg 83%
    12:00 +14°C° 0.3 mm 6 m/s 751 mmHg 86%
    13:00 +14°C° 1.1 mm 6 m/s 750 mmHg 88%
    14:00 +14°C° 1.1 mm 6 m/s 750 mmHg 91%
    15:00 +13°C° 1.1 mm 6 m/s 750 mmHg 93%
    16:00 +14°C° 0.3 mm 5 m/s 749 mmHg 93%
    17:00 +14°C° 0.3 mm 4 m/s 749 mmHg 92%
    18:00 +14°C° 0.3 mm 3 m/s 748 mmHg 92%
    19:00 +13°C° 0.5 mm 3 m/s 748 mmHg 93%
    20:00 +12°C° 0.5 mm 3 m/s 748 mmHg 94%
    21:00 +12°C° 0.5 mm 3 m/s 748 mmHg 95%
    22:00 +12°C° 0.2 mm 3 m/s 747 mmHg 95%
    23:00 +11°C° 0.2 mm 3 m/s 747 mmHg 95%

    Depois de amanhã, 28 Agosto, Quarta-feira

    Tempo Temperatura Precipitação Vento Pressão Humidade
    00:00 +11°C° 0.2 mm 3 m/s 747 mmHg 95%
    01:00 +11°C° 0.8 mm 3 m/s 747 mmHg 95%
    02:00 +11°C° 0.8 mm 3 m/s 747 mmHg 94%
    03:00 +11°C° 0.8 mm 4 m/s 747 mmHg 94%
    04:00 +10°C° 0.4 mm 5 m/s 747 mmHg 92%
    05:00 +9°C° 0.4 mm 6 m/s 747 mmHg 91%
    06:00 +9°C° 0.4 mm 7 m/s 747 mmHg 90%
    07:00 +9°C° 0 mm 7 m/s 747 mmHg 88%
    08:00 +9°C° 0 mm 6 m/s 747 mmHg 87%
    09:00 +9°C° 0 mm 6 m/s 748 mmHg 85%
    10:00 +10°C° 0.1 mm 7 m/s 748 mmHg 84%
    11:00 +10°C° 0.1 mm 7 m/s 748 mmHg 82%
    12:00 +10°C° 0.1 mm 7 m/s 748 mmHg 81%
    13:00 +10°C° 0.2 mm 7 m/s 748 mmHg 80%
    14:00 +11°C° 0.2 mm 8 m/s 749 mmHg 79%
    15:00 +11°C° 0.2 mm 8 m/s 749 mmHg 79%
    16:00 +10°C° 0.1 mm 8 m/s 749 mmHg 80%
    17:00 +9°C° 0.1 mm 8 m/s 750 mmHg 82%
    18:00 +7°C° 0.1 mm 8 m/s 750 mmHg 84%
    19:00 +7°C° 0.1 mm 8 m/s 750 mmHg 84%
    20:00 +7°C° 0.1 mm 8 m/s 750 mmHg 84%
    21:00 +7°C° 0.1 mm 8 m/s 751 mmHg 84%
    22:00 +7°C° 0 mm 8 m/s 751 mmHg 84%
    23:00 +7°C° 0 mm 8 m/s 750 mmHg 85%

    29 Agosto, Quinta-feira

    Tempo Temperatura Precipitação Vento Pressão Humidade
    00:00 +7°C° 0 mm 8 m/s 750 mmHg 86%
    01:00 +7°C° 0 mm 8 m/s 751 mmHg 85%
    02:00 +6°C° 0 mm 8 m/s 751 mmHg 84%
    03:00 +6°C° 0 mm 8 m/s 751 mmHg 84%
    04:00 +6°C° 0 mm 8 m/s 752 mmHg 82%
    05:00 +6°C° 0 mm 8 m/s 752 mmHg 80%
    06:00 +6°C° 0 mm 8 m/s 752 mmHg 79%
    07:00 +7°C° 0 mm 8 m/s 752 mmHg 78%
    08:00 +7°C° 0 mm 8 m/s 753 mmHg 77%
    09:00 +7°C° 0 mm 8 m/s 753 mmHg 77%
    10:00 +9°C° 0 mm 8 m/s 753 mmHg 76%
    11:00 +9°C° 0 mm 8 m/s 754 mmHg 75%
    12:00 +9°C° 0 mm 8 m/s 754 mmHg 74%
    13:00 +10°C° 0 mm 7 m/s 754 mmHg 73%
    14:00 +10°C° 0 mm 7 m/s 754 mmHg 72%
    15:00 +10°C° 0 mm 7 m/s 754 mmHg 71%
    16:00 +10°C° 0 mm 6 m/s 755 mmHg 72%
    17:00 +10°C° 0 mm 6 m/s 755 mmHg 72%
    18:00 +10°C° 0 mm 5 m/s 755 mmHg 73%
    19:00 +10°C° 0 mm 5 m/s 755 mmHg 73%
    20:00 +11°C° 0 mm 4 m/s 755 mmHg 72%
    21:00 +10°C° 0 mm 4 m/s 755 mmHg 72%
    22:00 +8°C° 0 mm 4 m/s 755 mmHg 75%
    23:00 +7°C° 0 mm 4 m/s 755 mmHg 79%

    30 Agosto, Sexta-feira

    Tempo Temperatura Precipitação Vento Pressão Humidade
    00:00 +6°C° 0 mm 4 m/s 755 mmHg 82%
    01:00 +7°C° 0 mm 3 m/s 755 mmHg 85%
    02:00 +5°C° 0 mm 3 m/s 754 mmHg 88%
    03:00 +4°C° 0 mm 3 m/s 754 mmHg 91%
    04:00 +5°C° 0 mm 3 m/s 754 mmHg 90%
    05:00 +5°C° 0 mm 3 m/s 754 mmHg 88%
    06:00 +5°C° 0 mm 3 m/s 754 mmHg 87%
    07:00 +8°C° 0 mm 3 m/s 754 mmHg 80%
    08:00 +8°C° 0 mm 4 m/s 754 mmHg 73%
    09:00 +10°C° 0 mm 5 m/s 755 mmHg 65%
    10:00 +9°C° 0 mm 5 m/s 755 mmHg 70%
    11:00 +9°C° 0 mm 5 m/s 755 mmHg 75%
    12:00 +8°C° 0 mm 5 m/s 755 mmHg 80%
    13:00 +9°C° 0.1 mm 5 m/s 755 mmHg 78%
    14:00 +9°C° 0.1 mm 5 m/s 755 mmHg 77%
    15:00 +10°C° 0.1 mm 5 m/s 755 mmHg 75%
    16:00 +11°C° 0 mm 4 m/s 755 mmHg 76%
    17:00 +10°C° 0 mm 4 m/s 755 mmHg 77%
    18:00 +10°C° 0 mm 3 m/s 755 mmHg 79%
    19:00 +10°C° 0 mm 3 m/s 755 mmHg 79%
    20:00 +9°C° 0 mm 3 m/s 755 mmHg 80%
    21:00 +9°C° 0 mm 3 m/s 756 mmHg 80%
    22:00 +8°C° 0 mm 3 m/s 756 mmHg 82%
    23:00 +7°C° 0 mm 3 m/s 755 mmHg 85%

    31 Agosto, Sábado

    Tempo Temperatura Precipitação Vento Pressão Humidade
    00:00 +5°C° 0 mm 3 m/s 755 mmHg 87%
    01:00 +7°C° 0 mm 3 m/s 755 mmHg 86%
    02:00 +7°C° 0 mm 3 m/s 755 mmHg 84%
    03:00 +8°C° 0 mm 3 m/s 755 mmHg 83%
    04:00 +8°C° 0 mm 3 m/s 755 mmHg 83%
    05:00 +7°C° 0 mm 4 m/s 755 mmHg 83%
    06:00 +7°C° 0 mm 4 m/s 755 mmHg 82%
    07:00 +7°C° 0 mm 4 m/s 755 mmHg 78%
    08:00 +8°C° 0 mm 4 m/s 755 mmHg 75%
    09:00 +8°C° 0 mm 5 m/s 755 mmHg 71%
    10:00 +9°C° 0 mm 5 m/s 755 mmHg 67%
    11:00 +9°C° 0 mm 5 m/s 755 mmHg 62%
    12:00 +10°C° 0 mm 4 m/s 755 mmHg 58%
    13:00 +10°C° 0 mm 4 m/s 755 mmHg 59%
    14:00 +11°C° 0 mm 4 m/s 755 mmHg 61%
    15:00 +11°C° 0 mm 4 m/s 755 mmHg 62%
    16:00 +11°C° 0 mm 4 m/s 755 mmHg 65%
    17:00 +10°C° 0 mm 3 m/s 755 mmHg 67%
    18:00 +10°C° 0 mm 3 m/s 755 mmHg 70%
    19:00 +10°C° 0 mm 3 m/s 755 mmHg 72%
    20:00 +9°C° 0 mm 3 m/s 755 mmHg 73%
    21:00 +9°C° 0 mm 3 m/s 755 mmHg 75%
    22:00 +8°C° 0 mm 3 m/s 755 mmHg 79%
    23:00 +7°C° 0 mm 3 m/s 755 mmHg 82%
    Mostrar mais